Tracking 28794 objects as of 19-Apr-2024
HD Live streaming from Space Station
objects crossing your sky now

FENGYUN 1C DEB

Track FENGYUN 1C DEB now!
10-day predictions


NORAD ID: 29930
Int'l Code: 1999-025JC
Perigee: 714.1 km
Apogee: 953.1 km
Inclination: 99.1 °
Period: 101.4 minutes
Semi major axis: 7204 km
RCS: 0.031 m2 (small)
Launch date: May 10, 1999
Source: People's Republic of China (PRC)
Launch site: Taiyaun Space Center, China (TSC)

Note: This is SATELLITE DEBRIS
Your satellite tracking list
Your tracking list is empty




NASA's NSSDC Master Catalog

Two Line Element Set (TLE):
1 29930U 99025JC  24110.59014878  .00001113  00000-0  47922-3 0  9991
2 29930  99.1272 330.2909 0165860 330.7109  83.6044 14.19676146893437
Source of the keplerian elements: AFSPC